Location: Sevilla
(37.3933°N, 5.9839°W)
Time: 12:50:16
(UTC+02:00)

S-56A Canister/Altair - Pass Details

Date: 27 June 2024
Orbit: 638 x 2488 km, 38.9° (Epoch: 14 July)

Event Time Altitude Azimuth Distance (km) Brightness Sun altitude
Rises 05:19:25 0° 285° (WNW) 5,528 11.6 -17.0°
Reaches altitude 10° 05:23:36 10° 274° (W) 4,748 11.2 -16.5°
Maximum altitude 05:34:06 27° 224° (SW) 3,869 10.5 -15.1°
Drops below altitude 10° 05:45:24 10° 175° (S) 5,094 11.3 -13.5°
Sets 05:50:12 0° 164° (SSE) 5,990 11.8 -12.8°
